[[{"header":{"parameterUnit":"m.s-1","parameterCategory":1,"la1":30.2991,"la2":30.254,"lo1":-89.0895,"lo2":-89.0444,"dy":0.0017,"dx":0.0017,"nx":28,"ny":28,"refTime":"2025-09-12T21:00:00:Z","depth":0,"parameterNumber":2,"parameterNumberName":"U-component_of_WINDS"},"data":[0,0,0,0,0,0,0,0,0,0,0,0,0,0,0,0,0,0,0,0,0,0,0,0,0,0,0,0,0,0,0,0,0,0,0,0,0,0,0,0,0,0,0,0,0,0,0,0,0,0,0,0,0,0,0,0,0,0,-1.7262,-1.7261,0,-1.7168,-1.7167,-1.7166,-1.7113,-1.7112,-1.7112,-1.7112,-1.7016,-1.7013,-1.7011,0,0,0,0,0,0,0,0,0,0,0,0,0,-1.7397,-1.7395,-1.7263,-1.7261,-1.726,-1.7169,-1.7167,-1.7166,-1.7113,-1.7112,-1.7112,-1.7112,-1.7016,-1.7014,-1.7011,0,0,0,0,0,0,0,0,0,0,0,0,0,-1.7325,-1.7394,-1.7263,-1.7223,-1.7218,-1.7169,-1.7167,-1.7166,-1.7113,-1.7112,-1.7112,-1.7112,-1.7017,-1.7014,-1.701,-1.6994,0,0,-1.6999,-1.6998,0,0,0,0,0,0,0,0,-1.7329,-1.732,-1.723,-1.7225,-1.722,-1.7152,-1.7179,-1.7108,-1.7113,-1.7153,-1.7112,-1.7112,-1.7061,-1.7054,-1.7037,-1.6989,-1.6985,-1.6999,-1.6997,-1.6995,-1.6994,0,0,0,0,0,0,0,-1.7334,-1.7323,-1.7225,-1.7228,-1.7222,-1.721,-1.7199,-1.7166,-1.711,-1.7149,-1.7145,-1.7135,-1.7059,-1.7041,-1.7034,-1.6984,-1.6999,-1.6996,-1.6994,-1.6992,-1.6921,-1.6921,0,0,0,0,0,0,-1.7345,-1.7328,-1.7228,-1.7222,-1.7275,-1.7207,-1.7195,-1.7174,-1.711,-1.71,-1.7135,-1.7132,-1.7047,-1.7039,-1.7031,-1.7009,-1.6995,-1.6992,-1.699,-1.692,-1.6921,-1.6921,0,0,0,0,0,0,-1.7348,-1.7337,-1.7232,-1.7274,-1.726,-1.7205,-1.7182,-1.7172,-1.7154,-1.7099,-1.7089,-1.7127,-1.7046,-1.7036,-1.7004,-1.7005,-1.699,-1.6987,-1.692,-1.692,-1.6921,-1.6964,0,0,0,0,0,0,-1.7353,-1.7338,-1.7331,-1.7274,-1.7258,-1.7206,-1.7182,-1.7171,-1.7148,-1.7144,-1.7089,-1.7079,-1.7045,-1.701,-1.7,-1.6999,-1.6984,-1.692,-1.692,-1.6921,-1.6962,-1.6966,-1.6969,0,0,0,0,0,-1.7358,-1.7346,-1.7331,-1.7319,-1.7247,-1.7207,-1.7197,-1.7158,-1.7148,-1.7141,-1.7106,-1.7081,-1.7006,-1.7007,-1.6996,-1.6994,-1.692,-1.692,-1.6921,-1.6961,-1.6965,-1.6969,0,0,0,0,0,0,-1.7404,-1.7338,-1.732,-1.729,-1.7255,-1.7198,-1.7187,-1.7163,-1.7129,-1.7127,-1.708,-1.7068,-1.7041,-1.7014,-1.7016,-1.6976,-1.696,-1.6959,-1.6994,-1.6998,-1.7001,-1.7008,-1.6981,0,0,0,0,0,-1.7411,-1.7383,-1.7327,-1.7306,-1.7289,-1.7241,-1.7222,-1.7195,-1.7156,-1.7141,-1.7103,-1.7067,-1.7035,-1.7015,-1.6982,-1.6958,-1.6946,-1.6952,-1.6955,-1.6958,-1.6957,-1.6944,-1.6947,-1.6923,-1.6923,-1.6923,0,0,-1.7424,-1.7385,-1.737,-1.7314,-1.7283,-1.7256,-1.7229,-1.7201,-1.718,-1.7136,-1.7104,-1.7076,-1.7032,-1.7005,-1.6991,-1.6981,-1.6961,-1.6959,-1.6961,-1.6959,-1.6945,-1.6948,-1.695,-1.6923,-1.6923,-1.6923,0,0,-1.7435,-1.7402,-1.7382,-1.7352,-1.7306,-1.7275,-1.727,-1.7217,-1.7197,-1.7164,-1.7131,-1.7107,-1.7053,-1.7024,-1.7002,-1.7005,-1.6981,-1.6995,-1.7012,-1.7001,-1.7002,-1.7004,-1.7006,-1.7008,-1.6995,-1.6995,-1.6995,0,-1.7457,-1.7415,-1.7374,-1.7349,-1.7326,-1.7286,-1.7266,-1.7239,-1.7185,-1.717,-1.7161,-1.7094,-1.7061,-1.7027,-1.7028,-1.7011,-1.7006,-1.7001,-1.7005,-1.7006,-1.7007,-1.7009,-1.701,-1.6997,-1.6997,-1.6997,-1.6996,0,-1.7445,-1.7417,-1.7406,-1.7356,-1.7332,-1.7309,-1.7266,-1.7247,-1.7223,-1.7193,-1.7162,-1.7122,-1.7082,-1.7072,-1.7048,-1.7035,-1.7031,-1.7014,-1.6998,-1.7012,-1.7014,-1.7014,-1.7,-1.6999,-1.6999,-1.6998,0,0,-1.7481,-1.741,-1.7407,-1.7385,-1.7332,-1.731,-1.7286,-1.7247,-1.7233,-1.7197,-1.7177,-1.7134,-1.7119,-1.7094,-1.7067,-1.7056,-1.7063,-1.7041,-1.7039,-1.7047,-1.7049,-1.7063,-1.7064,-1.7048,-1.7048,-1.7048,-1.7054,0,-1.7485,-1.744,-1.7404,-1.7373,-1.7347,-1.7311,-1.729,-1.7257,-1.7229,-1.7203,-1.7173,-1.7143,-1.7125,-1.711,-1.7098,-1.7065,-1.7063,-1.7064,-1.703,-1.7029,-1.7042,-1.7065,-1.7078,-1.7086,-1.7054,-1.7054,-1.7054,0,-1.7482,-1.745,-1.7417,-1.7369,-1.7357,-1.734,-1.7303,-1.7278,-1.724,-1.7221,-1.7195,-1.7167,-1.7142,-1.7128,-1.7094,-1.7096,-1.708,-1.7062,-1.7061,-1.7056,-1.7042,-1.7062,-1.7087,-1.7089,-1.7054,-1.7054,-1.7054,0,-1.7513,-1.7461,-1.7435,-1.7417,-1.736,-1.7349,-1.7325,-1.7287,-1.7267,-1.7235,-1.7222,-1.7187,-1.7168,-1.7143,-1.7107,-1.71,-1.7077,-1.706,-1.7062,-1.7063,-1.7058,-1.7059,-1.7082,-1.7047,-1.7047,-1.7047,-1.7047,0,-1.7521,-1.7503,-1.7448,-1.7432,-1.7411,-1.7371,-1.7351,-1.7324,-1.7291,-1.727,-1.7236,-1.7217,-1.7171,-1.7147,-1.7119,-1.7096,-1.7087,-1.7072,-1.7065,-1.7075,-1.7078,-1.7064,-1.7063,-1.7047,-1.7047,-1.7047,-1.7047,0,-1.7551,-1.7514,-1.7483,-1.7433,-1.7421,-1.7408,-1.7365,-1.7349,-1.732,-1.7295,-1.7286,-1.7241,-1.7212,-1.7174,-1.7132,-1.7113,-1.7094,-1.7082,-1.7107,-1.7103,-1.7107,-1.7108,-1.7123,-1.7123,-1.7088,-1.7088,-1.7088,0,-1.7559,-1.7544,-1.7493,-1.7477,-1.7454,-1.7428,-1.7408,-1.7369,-1.735,-1.7307,-1.7296,-1.7264,-1.7237,-1.7192,-1.7156,-1.7124,-1.7112,-1.712,-1.7107,-1.7119,-1.7114,-1.7115,-1.7115,-1.7123,-1.7124,-1.7124,-1.7124,0,-1.7577,-1.756,-1.7532,-1.7499,-1.7476,-1.7448,-1.7418,-1.7407,-1.7361,-1.7342,-1.7311,-1.729,-1.7248,-1.7218,-1.7182,-1.7158,-1.7135,-1.7129,-1.7128,-1.7139,-1.7154,-1.7147,-1.7116,-1.7129,-1.7128,-1.7128,-1.7128,-1.7127,-1.7596,-1.7582,-1.7545,-1.7516,-1.749,-1.7464,-1.7447,-1.7417,-1.7391,-1.7354,-1.7333,-1.7304,-1.7269,-1.7219,-1.7197,-1.7174,-1.7165,-1.7163,-1.7163,-1.7163,-1.7167,-1.7158,-1.7168,-1.7167,-1.7167,-1.7167,-1.7167,0,-1.7613,-1.7588,-1.7562,-1.7522,-1.75,-1.748,-1.7447,-1.743,-1.7405,-1.7375,-1.7349,-1.7315,-1.7286,-1.7249,-1.7218,-1.7208,-1.7196,-1.7201,-1.7201,-1.7197,-1.7176,-1.7181,-1.7211,-1.7211,-1.7211,-1.7211,-1.7211,-1.7211,-1.7619,-1.7596,-1.7575,-1.7538,-1.7513,-1.7485,-1.7468,-1.7445,-1.742,-1.7385,-1.7361,-1.7337,-1.7304,-1.7271,-1.7244,-1.7234,-1.7225,-1.7233,-1.722,-1.7202,-1.7198,-1.7194,-1.7198,-1.7231,-1.7231,-1.7242,-1.7243,-1.7243]},{"header":{"parameterUnit":"m.s-1","parameterCategory":1,"la1":30.2991,"la2":30.254,"lo1":-89.0895,"lo2":-89.0444,"dy":0.0017,"dx":0.0017,"nx":28,"ny":28,"refTime":"2025-09-12T21:00:00:Z","depth":0,"parameterNumber":3,"parameterNumberName":"V-component_of_WINDS"},"data":[0,0,0,0,0,0,0,0,0,0,0,0,0,0,0,0,0,0,0,0,0,0,0,0,0,0,0,0,0,0,0,0,0,0,0,0,0,0,0,0,0,0,0,0,0,0,0,0,0,0,0,0,0,0,0,0,0,0,0.6917,0.6917,0,0.691,0.691,0.691,0.692,0.692,0.692,0.6921,0.6913,0.6912,0.6912,0,0,0,0,0,0,0,0,0,0,0,0,0,0.6938,0.6937,0.6917,0.6917,0.6917,0.691,0.691,0.691,0.692,0.692,0.692,0.6921,0.6913,0.6912,0.6912,0,0,0,0,0,0,0,0,0,0,0,0,0,0.693,0.6937,0.6917,0.6921,0.6921,0.691,0.691,0.691,0.6919,0.692,0.692,0.6921,0.6913,0.6912,0.6912,0.6896,0,0,0.6909,0.6909,0,0,0,0,0,0,0,0,0.693,0.6929,0.6921,0.6921,0.6921,0.6916,0.6914,0.6905,0.6919,0.692,0.6921,0.6921,0.6914,0.6913,0.691,0.6896,0.6896,0.6909,0.6909,0.6908,0.6908,0,0,0,0,0,0,0,0.6931,0.6929,0.6915,0.6921,0.6921,0.6923,0.6922,0.6913,0.6914,0.692,0.6921,0.692,0.6914,0.6911,0.691,0.6896,0.6909,0.6908,0.6908,0.6908,0.6866,0.6865,0,0,0,0,0,0,0.6931,0.693,0.6915,0.6914,0.6927,0.6922,0.6921,0.6917,0.6914,0.6914,0.6919,0.692,0.6912,0.6911,0.691,0.689,0.6908,0.6908,0.6907,0.6867,0.6866,0.6865,0,0,0,0,0,0,0.6931,0.6929,0.6915,0.6922,0.692,0.6921,0.6917,0.6917,0.6914,0.6914,0.6914,0.6916,0.6912,0.6911,0.6899,0.689,0.6907,0.6907,0.6867,0.6866,0.6866,0.6851,0,0,0,0,0,0,0.6932,0.693,0.6924,0.6922,0.692,0.6905,0.6916,0.6916,0.6913,0.6914,0.6911,0.6911,0.6913,0.69,0.6898,0.6889,0.6906,0.6868,0.6867,0.6866,0.6853,0.685,0.6848,0,0,0,0,0,0.6932,0.6921,0.6924,0.6922,0.6914,0.6905,0.6903,0.6906,0.6912,0.6906,0.6906,0.6911,0.6892,0.6899,0.6897,0.6887,0.6869,0.6867,0.6866,0.6854,0.6851,0.6848,0,0,0,0,0,0,0.6923,0.6921,0.6924,0.6912,0.6908,0.6906,0.6899,0.6903,0.6897,0.6899,0.6902,0.6901,0.6888,0.6887,0.6895,0.6871,0.6881,0.6879,0.6872,0.6869,0.6867,0.6867,0.6905,0,0,0,0,0,0.6919,0.6912,0.6911,0.69,0.6898,0.6899,0.6895,0.6897,0.6893,0.6892,0.6891,0.6887,0.6879,0.6875,0.6868,0.6853,0.6851,0.6845,0.6843,0.6841,0.6839,0.6828,0.6825,0.6861,0.6861,0.6861,0,0,0.6911,0.691,0.6905,0.6898,0.6895,0.6887,0.6897,0.6889,0.6883,0.6891,0.6879,0.6878,0.6873,0.6859,0.6853,0.6857,0.6828,0.6839,0.6837,0.6836,0.6826,0.6823,0.682,0.686,0.686,0.686,0,0,0.6893,0.6892,0.6882,0.6879,0.6874,0.6875,0.6872,0.6869,0.6868,0.6857,0.6862,0.6854,0.6842,0.6838,0.6835,0.6813,0.6817,0.6811,0.6798,0.6787,0.6784,0.6782,0.6772,0.6769,0.6809,0.6809,0.6809,0,0.6884,0.6873,0.6876,0.6866,0.6862,0.6869,0.6857,0.6854,0.6848,0.6845,0.685,0.6834,0.6832,0.6815,0.681,0.6808,0.6803,0.6811,0.6785,0.6782,0.678,0.677,0.6767,0.6808,0.6808,0.6808,0.6808,0,0.6861,0.6853,0.6845,0.6838,0.6833,0.6823,0.6824,0.6818,0.682,0.682,0.6806,0.6804,0.6795,0.6792,0.6795,0.6775,0.6778,0.6784,0.6794,0.6775,0.6766,0.6763,0.6807,0.6807,0.6807,0.6808,0,0,0.6837,0.6831,0.6828,0.6823,0.6819,0.6812,0.6801,0.6793,0.6787,0.6783,0.6773,0.6762,0.6766,0.6762,0.6764,0.6755,0.6735,0.6762,0.6762,0.6756,0.6712,0.6706,0.6702,0.6738,0.6738,0.6737,0.6711,0,0.6817,0.6799,0.68,0.6782,0.6774,0.6779,0.6769,0.6765,0.6763,0.6755,0.6754,0.6745,0.6753,0.675,0.6742,0.674,0.6726,0.6742,0.6728,0.6727,0.6727,0.6698,0.6692,0.6667,0.6708,0.6707,0.6707,0,0.6792,0.6785,0.6766,0.6761,0.6757,0.6748,0.674,0.6733,0.6727,0.6726,0.6721,0.6723,0.6711,0.6722,0.6704,0.6714,0.6709,0.6707,0.6706,0.6703,0.6715,0.6692,0.666,0.6655,0.6702,0.6702,0.6703,0,0.6774,0.676,0.6747,0.6743,0.6737,0.673,0.6727,0.6722,0.6716,0.6709,0.6705,0.6696,0.6691,0.6684,0.6683,0.6691,0.6664,0.6676,0.6662,0.6662,0.6656,0.6656,0.662,0.6655,0.6655,0.6655,0.6655,0,0.6751,0.6739,0.6738,0.673,0.6715,0.6717,0.6702,0.67,0.6695,0.6685,0.6689,0.668,0.6681,0.6671,0.6671,0.6655,0.6653,0.6651,0.6651,0.665,0.665,0.6645,0.6646,0.6654,0.6654,0.6654,0.6654,0,0.6728,0.6728,0.6713,0.6707,0.6705,0.6695,0.669,0.6681,0.668,0.6667,0.6664,0.6662,0.665,0.6649,0.6636,0.6636,0.6615,0.6618,0.6617,0.6617,0.6603,0.6603,0.6561,0.6555,0.6596,0.6596,0.6595,0,0.6713,0.6703,0.6696,0.669,0.6686,0.6676,0.667,0.6671,0.6664,0.6655,0.6647,0.6635,0.6626,0.6607,0.6604,0.6593,0.6594,0.658,0.6592,0.6591,0.6591,0.6591,0.6589,0.6577,0.6577,0.6576,0.6576,0,0.6685,0.6685,0.6676,0.6666,0.6658,0.665,0.6643,0.6638,0.6637,0.6629,0.6617,0.6609,0.6595,0.6583,0.6572,0.6568,0.6571,0.6572,0.6568,0.6566,0.6565,0.6563,0.6609,0.6573,0.6573,0.6573,0.6574,0.6574,0.6665,0.6655,0.6648,0.6637,0.6632,0.6624,0.6615,0.6612,0.6602,0.659,0.6591,0.6577,0.6569,0.6554,0.6549,0.6537,0.6542,0.6537,0.6535,0.6533,0.6531,0.6568,0.6536,0.6536,0.6536,0.6536,0.6536,0,0.6636,0.6631,0.6621,0.661,0.66,0.6605,0.6596,0.6588,0.6575,0.6568,0.6558,0.6543,0.6531,0.6526,0.6513,0.6504,0.6505,0.6501,0.6501,0.6499,0.6528,0.6532,0.65,0.65,0.65,0.65,0.65,0.65,0.6619,0.6603,0.6601,0.6582,0.6577,0.6563,0.6557,0.655,0.6544,0.6526,0.6516,0.6513,0.6505,0.6492,0.648,0.6479,0.6473,0.6468,0.6467,0.6494,0.6498,0.6501,0.6504,0.6467,0.6467,0.6438,0.6438,0.6438]}]]